Weather History for KOFK - April, 2013

Change the Weather History Date:

Wednesday, April 10, 2013

  Actual Average Record
Temperature  
Mean Temperature 29 °F 48 °F  
Max Temperature 31 °F 60 °F 88 °F (1977)
Min Temperature 27 °F 35 °F 17 °F (1921)
Degree Days  
Heating Degree Days 36 18  
Month to date heating degree days 203 195  
Since 1 July heating degree days 6116 6144  
Cooling Degree Days 0 0  
Month to date cooling degree days 0 0  
Year to date cooling degree days 0 0  
Moisture  
Dew Point 27 °F    
Average Humidity 93    
Maximum Humidity 100    
Minimum Humidity 85    
Precipitation  
Precipitation 0.27 in 0.09 in 0.91 in (1913)
Month to date precipitation 2.41 0.78  
Year to date precipitation 4.59 3.90  
Snow  
Snow 1.60 in 0.10 in - ()
Month to date snowfall 2.0 1.2  
Since 1 July snowfall 22.7 29.1  
Snow Depth 1.00 in    
Sea Level Pressure  
Sea Level Pressure 29.96 in    
Wind  
Wind Speed 14 mph (NNW)    
Max Wind Speed 25 mph    
Max Gust Speed 32 mph    
Visibility 3 miles    
Events Rain , Snow    
T = Trace of Precipitation, MM = Missing Value Source: NWS Daily Summary

Daily Weather History Graph

Daily Weather History Graph

Search for Another Location

Airport or City:

Trip Planner

Search our weather history database for the weather conditions in past years. The results will help you decide how hot, cold, wet, or windy it might be!

Date:

Astronomy

Apr. 10, 2013 Rise Set
Actual Time 6:56 AM CDT 8:05 PM CDT
Civil Twilight 6:28 AM CDT 8:34 PM CDT
Nautical Twilight 5:54 AM CDT 9:08 PM CDT
Astronomical Twilight 5:18 AM CDT 9:44 PM CDT
Moon 6:53 AM CDT (4/10) 8:43 PM CDT (4/10)
Length of Visible Light 14h 06m
Length of Day
13h 08m
New Moon, 0% of the Moon is Illuminated
Apr 10
New Moon
Apr 18
First Quarter
Apr 25
Full
May 2
Last Quarter
May 9
New

Hourly Weather History & Observations

Time (CDT) Temp. Windchill Dew Point Humidity Pressure Visibility Wind Dir Wind Speed Gust Speed Precip Events Conditions
12:15 AM 26.6 °F 13.8 °F 24.8 °F 93% 30.00 in 3.0 mi North 17.3 mph 27.6 mph 0.00 in Rain Light Freezing Rain
12:29 AM 26.6 °F 13.8 °F 24.8 °F 93% 30.03 in 2.5 mi NNW 17.3 mph 28.8 mph 0.00 in Snow Light Snow
12:56 AM 27.0 °F 14.3 °F 25.0 °F 92% 30.09 in 1.8 mi NNW 17.3 mph - 0.00 in Snow Light Snow
1:10 AM 26.6 °F 12.7 °F 24.8 °F 93% 30.02 in 2.0 mi NNW 20.7 mph 26.5 mph 0.00 in Snow Light Snow
1:18 AM 26.6 °F 12.4 °F 24.8 °F 93% 30.01 in 1.8 mi North 21.9 mph 28.8 mph 0.00 in Snow Light Snow
1:34 AM 26.6 °F 12.4 °F 24.8 °F 93% 30.01 in 2.0 mi North 21.9 mph 29.9 mph 0.00 in Snow Light Snow
1:56 AM 27.0 °F 13.2 °F 25.0 °F 92% 30.07 in 2.0 mi NNW 20.7 mph - 0.00 in Snow Light Snow
2:09 AM 26.6 °F 13.1 °F 24.8 °F 93% 30.01 in 2.5 mi North 19.6 mph 28.8 mph 0.00 in Rain Light Freezing Rain
2:18 AM 26.6 °F 13.1 °F 24.8 °F 93% 29.99 in 3.0 mi North 19.6 mph - 0.00 in Rain Light Freezing Rain
2:56 AM 27.0 °F 12.5 °F 25.0 °F 92% 29.97 in 5.0 mi North 23.0 mph 29.9 mph 0.00 in Rain Light Freezing Rain
3:28 AM 28.4 °F 18.0 °F 26.6 °F 93% 29.97 in 8.0 mi North 12.7 mph 21.9 mph 0.00 in   Overcast
3:56 AM 28.0 °F 17.0 °F 27.0 °F 96% 30.04 in 8.0 mi NNW 13.8 mph - 0.00 in   Overcast
4:13 AM 28.4 °F 16.6 °F 26.6 °F 93% 29.96 in 2.5 mi North 16.1 mph - 0.00 in Rain Light Freezing Rain
4:25 AM 28.4 °F 16.2 °F 26.6 °F 93% 29.96 in 2.0 mi North 17.3 mph 26.5 mph 0.00 in Snow Light Snow
4:56 AM 28.9 °F 18.2 °F 28.0 °F 96% 30.01 in 2.0 mi North 13.8 mph - 0.00 in Snow Light Snow
5:16 AM 28.4 °F 15.4 °F 28.4 °F 100% 29.93 in 3.0 mi North 19.6 mph 24.2 mph 0.01 in Rain Light Freezing Rain
5:47 AM 28.4 °F 18.5 °F 28.4 °F 100% 29.98 in 6.0 mi NNW 11.5 mph - 0.01 in Rain Light Freezing Rain
5:56 AM 30.0 °F 19.1 °F 28.0 °F 92% 30.00 in 4.0 mi North 15.0 mph - 0.01 in Rain Light Freezing Rain
6:15 AM 30.2 °F 18.1 °F 28.4 °F 93% 29.90 in 5.0 mi North 18.4 mph 24.2 mph 0.04 in Rain Light Freezing Rain
7:14 AM 30.2 °F 17.4 °F 28.4 °F 93% 29.96 in 9.0 mi NNW 20.7 mph 25.3 mph 0.00 in   Overcast
7:43 AM 28.4 °F 16.6 °F 26.6 °F 93% 30.00 in 1.8 mi WNW 16.1 mph - 0.01 in   Overcast
7:56 AM 28.9 °F 15.8 °F 27.0 °F 92% 30.05 in 1.0 mi NNW 20.7 mph 24.2 mph 0.02 in Snow Light Snow
8:09 AM 30.2 °F 18.9 °F 28.4 °F 93% 29.96 in 2.0 mi North 16.1 mph 26.5 mph 0.00 in Snow Light Snow
8:18 AM 30.2 °F 18.5 °F 28.4 °F 93% 29.99 in 5.0 mi NNW 17.3 mph - 0.00 in Rain Light Freezing Rain
8:40 AM 30.2 °F 18.1 °F 28.4 °F 93% 29.96 in 9.0 mi NNW 18.4 mph - 0.00 in Rain Light Freezing Rain
8:49 AM 30.2 °F 18.1 °F 28.4 °F 93% 29.97 in 10.0 mi NNW 18.4 mph 23.0 mph 0.00 in   Overcast
8:56 AM 28.9 °F 16.9 °F 28.0 °F 96% 30.02 in 9.0 mi NNW 17.3 mph - 0.00 in   Overcast
9:25 AM 28.4 °F 17.0 °F 26.6 °F 93% 29.97 in 3.0 mi NNW 15.0 mph - 0.00 in   Overcast
9:34 AM 28.4 °F 16.2 °F 28.4 °F 100% 29.97 in 2.0 mi NNW 17.3 mph - 0.00 in Snow Light Snow
9:41 AM 28.4 °F 17.5 °F 28.4 °F 100% 29.97 in 1.5 mi NNW 13.8 mph - 0.00 in Snow Light Snow
9:56 AM 28.9 °F 17.3 °F 28.0 °F 96% 30.02 in 1.0 mi NNW 16.1 mph - 0.00 in Snow Light Snow
10:27 AM 30.2 °F 18.5 °F 28.4 °F 93% 29.98 in 2.0 mi NNW 17.3 mph - 0.00 in Snow Light Snow
10:45 AM 28.4 °F 15.8 °F 24.8 °F 86% 29.98 in 6.0 mi NW 18.4 mph - 0.00 in Snow Light Snow
10:56 AM 28.0 °F 16.1 °F 25.0 °F 88% 30.04 in 9.0 mi NNW 16.1 mph - 0.00 in Rain Light Freezing Rain
11:25 AM 28.4 °F 15.4 °F 24.8 °F 86% 29.99 in 9.0 mi NW 19.6 mph 25.3 mph 0.00 in   Overcast
11:56 AM 28.0 °F 16.1 °F 25.0 °F 88% 30.05 in 4.0 mi NNW 16.1 mph 24.2 mph 0.00 in Snow Light Snow
12:02 PM 28.4 °F 15.8 °F 26.6 °F 93% 29.99 in 2.5 mi NNW 18.4 mph - 0.00 in Snow Light Snow
12:09 PM 28.4 °F 17.0 °F 26.6 °F 93% 30.00 in 3.0 mi NNW 15.0 mph - 0.00 in Snow Light Snow
12:51 PM 28.4 °F 18.5 °F 26.6 °F 93% 30.00 in 2.0 mi NNW 11.5 mph - 0.02 in Snow Light Snow
12:56 PM 28.9 °F 18.6 °F 27.0 °F 92% 30.06 in 1.5 mi NNW 12.7 mph - 0.02 in Snow Light Snow
1:10 PM 28.4 °F 18.0 °F 26.6 °F 93% 29.99 in 1.2 mi NNW 12.7 mph - 0.01 in Snow Light Snow
1:56 PM 30.0 °F 18.7 °F 27.0 °F 88% 30.02 in 2.5 mi NNW 16.1 mph - 0.02 in Snow Light Snow
2:15 PM 30.2 °F 19.8 °F 26.6 °F 86% 29.97 in 4.0 mi NNW 13.8 mph - 0.00 in Snow Light Snow
2:56 PM 30.9 °F 20.7 °F 28.0 °F 89% 30.00 in 3.0 mi North 13.8 mph - 0.00 in Snow Light Snow
3:47 PM 30.2 °F 20.2 °F 28.4 °F 93% 29.93 in 8.0 mi NNW 12.7 mph - 0.00 in   Overcast
3:56 PM 30.9 °F 21.2 °F 28.0 °F 89% 29.99 in 6.0 mi NNW 12.7 mph - 0.00 in   Overcast
4:26 PM 30.2 °F 18.9 °F 28.4 °F 93% 29.91 in 5.0 mi NNW 16.1 mph - 0.00 in   Overcast
4:56 PM 30.9 °F 21.2 °F 28.0 °F 89% 29.94 in 4.0 mi North 12.7 mph - 0.00 in   Overcast
5:56 PM 30.9 °F 21.7 °F 28.9 °F 92% 29.93 in 4.0 mi North 11.5 mph - 0.01 in Snow Light Snow
6:24 PM 30.2 °F 19.3 °F 28.4 °F 93% 29.87 in 4.0 mi North 15.0 mph - 0.00 in Snow Light Snow
6:40 PM 30.2 °F 20.2 °F 28.4 °F 93% 29.87 in 2.0 mi North 12.7 mph - 0.00 in Snow Light Snow
6:48 PM 30.2 °F 20.8 °F 28.4 °F 93% 29.86 in 1.8 mi NNW 11.5 mph - 0.00 in Snow Light Snow
6:56 PM 30.9 °F 21.2 °F 28.0 °F 89% 29.91 in 2.0 mi NNW 12.7 mph - 0.00 in Snow Light Snow
7:15 PM 30.2 °F 19.8 °F 28.4 °F 93% 29.85 in 1.8 mi North 13.8 mph - 0.00 in Snow Light Snow
7:26 PM 30.2 °F 21.3 °F 28.4 °F 93% 29.86 in 1.8 mi NNW 10.4 mph - 0.00 in Snow Light Snow
7:45 PM 30.2 °F 21.3 °F 28.4 °F 93% 29.84 in 1.0 mi North 10.4 mph - 0.00 in Snow Light Snow
7:56 PM 30.0 °F 21.1 °F 28.0 °F 92% 29.90 in 1.0 mi NNW 10.4 mph - 0.00 in Snow Light Snow
8:13 PM 30.2 °F 20.8 °F 28.4 °F 93% 29.84 in 1.2 mi NNW 11.5 mph - 0.01 in Snow Light Snow
8:27 PM 30.2 °F 21.3 °F 28.4 °F 93% 29.85 in 2.5 mi NNW 10.4 mph - 0.01 in Snow Light Snow
8:56 PM 30.0 °F 21.7 °F 28.0 °F 92% 29.91 in 1.5 mi NW 9.2 mph - 0.01 in Snow Light Snow
9:13 PM 28.4 °F 19.1 °F 28.4 °F 100% 29.86 in 1.0 mi NW 10.4 mph - 0.01 in Snow Light Snow
9:30 PM 28.4 °F 20.4 °F 28.4 °F 100% 29.86 in 1.2 mi NNW 8.1 mph - 0.02 in Snow Light Snow
9:44 PM 28.4 °F 19.7 °F 28.4 °F 100% 29.86 in 1.0 mi NNW 9.2 mph - 0.03 in Snow Light Snow
9:53 PM 28.4 °F 18.5 °F 28.4 °F 100% 29.86 in 1.0 mi NNW 11.5 mph - 0.04 in Snow Light Snow
9:56 PM 28.9 °F 19.2 °F 28.0 °F 96% 29.91 in 1.0 mi NNW 11.5 mph - 0.04 in Snow Light Snow
10:27 PM 28.4 °F 21.2 °F 28.4 °F 100% 29.86 in 1.8 mi NW 6.9 mph - 0.01 in Snow Light Snow
10:56 PM 28.9 °F 20.4 °F 27.0 °F 92% 29.91 in 1.8 mi NW 9.2 mph - 0.02 in Snow Light Snow
11:22 PM 28.4 °F 19.7 °F 26.6 °F 93% 29.84 in 1.0 mi NW 9.2 mph - 0.02 in Snow Light Snow
11:30 PM 28.4 °F 18.5 °F 26.6 °F 93% 29.84 in 0.8 mi NW 11.5 mph - 0.02 in Snow Light Snow
11:42 PM 28.4 °F 19.1 °F 26.6 °F 93% 29.83 in 1.2 mi NW 10.4 mph - 0.04 in Snow Light Snow
11:56 PM 28.9 °F 19.2 °F 27.0 °F 92% 29.88 in 1.0 mi NW 11.5 mph - 0.05 in Snow Light Snow